Temperature
5 4 4 4 4 4 4 4 4 3 3 3 3 3 3 3 3 3 3 2 2 2 2 2 2 2 2 2 2 1 1 1 1 1 2 2 2 3 3 3 3 3 3
4 4 4 3 3 3 3 3 3 3 3 3 3 3 3 2 2 2 2 2 2 2 2 2 1 1 1 1 1 1 1 1 0 0 1 1 2 2 2 2 2 2 2
3 3 3 3 2 3 3 3 2 2 2 2 2 2 2 2 2 1 1 1 1 1 1 1 1 1 1 1 0 0 0 0 -0 -0 -0 0 1 1 1 1 1 2 2
3 2 2 2 2 2 2 2 2 2 2 2 2 1 1 1 1 1 1 0 0 0 0 0 0 0 0 -0 -0 -0 -0 -0 -1 -1 -1 -1 -0 -0 -0 0 1 1 1
2 2 2 2 1 1 1 1 1 1 1 1 1 1 0 0 0 0 0 -0 -0 -0 -0 -0 -0 -0 -1 -1 -1 -1 -1 -1 -1 -1 -1 -1 -1 -1 -1 -1 -1 -0 -0
1 1 1 1 1 1 1 1 1 1 0 0 0 0 -0 -0 -0 -1 -1 -1 -1 -1 -1 -1 -1 -1 -1 -1 -1 -2 -2 -2 -2 -2 -2 -2 -2 -2 -2 -2 -2 -2 -1
1 1 1 0 0 0 0 0 0 -0 -0 -0 -0 -0 -1 -1 -1 -1 -1 -1 -1 -1 -1 -2 -2 -2 -2 -2 -2 -2 -2 -2 -2 -3 -2 -2 -3 -2 -2 -2 -2 -2 -2
0 0 0 -0 -0 -0 -0 -0 -0 -1 -1 -1 -1 -1 -1 -1 -2 -2 -2 -2 -2 -2 -2 -2 -2 -2 -3 -3 -3 -3 -3 -3 -3 -3 -3 -3 -3 -3 -3 -3 -3 -3 -2
-0 -0 -1 -1 -1 -1 -1 -1 -1 -1 -1 -1 -1 -2 -2 -2 -2 -2 -2 -2 -2 -2 -3 -3 -3 -3 -3 -3 -3 -3 -3 -3 -3 -3 -3 -3 -3 -3 -3 -3 -3 -3 -3
-1 -1 -1 -1 -1 -1 -2 -2 -2 -2 -2 -2 -2 -2 -2 -2 -3 -3 -3 -3 -3 -3 -3 -3 -3 -3 -3 -4 -4 -4 -3 -3 -3 -3 -3 -3 -3 -3 -3 -3 -4 -4 -4
-1 -1 -2 -2 -2 -2 -2 -2 -2 -2 -3 -3 -3 -3 -3 -3 -3 -3 -3 -3 -3 -4 -4 -4 -4 -4 -4 -4 -4 -4 -4 -4 -4 -4 -4 -3 -3 -4 -4 -4 -4 -4 -4
-2 -2 -2 -2 -2 -2 -3 -3 -3 -3 -3 -3 -3 -3 -3 -3 -3 -3 -4 -4 -4 -4 -4 -4 -4 -4 -4 -4 -4 -4 -4 -4 -4 -4 -4 -4 -4 -4 -4 -4 -4 -4 -5
-2 -2 -2 -3 -3 -3 -3 -3 -3 -3 -3 -3 -4 -3 -3 -4 -4 -4 -4 -4 -4 -5 -5 -5 -5 -5 -5 -4 -4 -4 -4 -4 -5 -5 -5 -5 -5 -5 -5 -5 -5 -5 -4
-3 -3 -3 -3 -3 -3 -3 -4 -4 -4 -4 -4 -4 -4 -4 -4 -4 -4 -4 -4 -4 -5 -5 -5 -5 -5 -5 -5 -4 -5 -5 -5 -5 -5 -5 -5 -5 -5 -5 -5 -5 -5 -5
-3 -3 -3 -4 -4 -4 -4 -4 -4 -4 -4 -4 -4 -5 -5 -4 -4 -5 -5 -5 -5 -5 -5 -5 -5 -5 -5 -5 -5 -5 -5 -5 -5 -5 -6 -6 -6 -6 -6 -6 -6 -6 -6
-4 -4 -4 -4 -4 -4 -4 -4 -4 -5 -5 -5 -5 -5 -5 -5 -5 -5 -5 -5 -5 -5 -5 -5 -5 -5 -5 -5 -5 -5 -5 -6 -6 -6 -6 -6 -6 -6 -6 -6 -6 -6 -6
-4 -4 -4 -4 -5 -5 -5 -5 -5 -5 -5 -5 -5 -5 -5 -5 -5 -5 -5 -5 -5 -6 -6 -6 -6 -6 -6 -6 -6 -6 -6 -6 -6 -6 -6 -7 -7 -7 -7 -7 -7 -7 -7
-5 -5 -5 -5 -5 -5 -5 -5 -5 -5 -5 -5 -5 -5 -5 -5 -5 -5 -5 -6 -6 -6 -6 -6 -6 -6 -6 -6 -6 -6 -6 -6 -7 -7 -7 -7 -7 -7 -7 -7 -7 -7 -7
-5 -5 -5 -5 -5 -5 -6 -6 -6 -6 -6 -6 -6 -5 -6 -6 -6 -6 -6 -6 -6 -6 -6 -6 -6 -6 -6 -6 -7 -7 -7 -7 -7 -7 -7 -7 -7 -7 -7 -7 -7 -7 -8
-5 -6 -6 -6 -6 -6 -6 -6 -6 -6 -6 -6 -6 -6 -6 -6 -6 -6 -6 -6 -6 -7 -7 -7 -7 -7 -7 -7 -7 -7 -7 -7 -7 -7 -8 -8 -8 -8 -8 -8 -8 -8 -8
-6 -6 -6 -6 -6 -6 -6 -7 -7 -7 -6 -6 -6 -6 -6 -7 -6 -6 -7 -7 -7 -7 -7 -7 -7 -7 -7 -7 -7 -7 -7 -7 -7 -8 -8 -8 -8 -8 -8 -8 -8 -8 -8
-6 -6 -6 -6 -6 -7 -7 -7 -7 -7 -7 -7 -7 -7 -7 -7 -7 -7 -7 -7 -7 -7 -7 -7 -7 -7 -7 -7 -7 -8 -8 -8 -8 -8 -8 -8 -8 -8 -8 -8 -8 -8 -8
-7 -7 -7 -7 -7 -7 -7 -7 -7 -7 -7 -7 -7 -7 -7 -7 -7 -7 -7 -7 -7 -7 -7 -8 -8 -7 -7 -8 -8 -8 -8 -8 -8 -8 -8 -8 -8 -8 -8 -8 -8 -8 -8
-7 -7 -7 -7 -7 -7 -7 -7 -7 -7 -7 -7 -7 -7 -7 -7 -7 -7 -7 -8 -8 -8 -8 -8 -8 -8 -8 -8 -8 -8 -8 -8 -8 -8 -8 -8 -8 -8 -8 -8 -8 -8 -8
-7 -7 -7 -7 -7 -7 -7 -7 -7 -7 -7 -7 -7 -7 -7 -8 -8 -8 -8 -8 -8 -8 -8 -8 -8 -8 -8 -8 -8 -8 -8 -8 -8 -8 -8 -8 -8 -8 -8 -8 -8 -8 -8
-8 -8 -8 -8 -8 -8 -8 -8 -8 -7 -7 -8 -8 -8 -8 -8 -8 -8 -8 -8 -8 -8 -8 -8 -8 -8 -8 -8 -8 -8 -8 -8 -8 -8 -8 -8 -8 -8 -8 -8 -8 -9 -9
Wind_Speed
2 2 2 2 1 2 1 1 1 1 0 1 1 1 1 1 1 1 1 1 1 2 2 2 2 2 2 2 2 2 3 3 6 5 3 4 4 5 8 9 9 8 7
2 2 2 2 2 2 1 1 1 1 1 1 1 1 1 1 1 1 1 2 2 2 2 2 3 2 2 2 2 3 3 3 4 6 4 4 5 5 6 7 8 7 7
2 2 2 2 2 1 1 1 1 1 0 0 0 1 1 1 1 2 1 2 2 3 3 3 3 3 3 3 2 3 3 3 3 4 5 4 4 4 5 6 6 6 7
2 2 1 1 2 2 1 1 1 1 1 1 0 1 1 2 2 2 2 2 2 2 3 3 3 3 3 3 3 3 3 3 3 3 4 4 4 4 3 4 6 5 5
2 1 1 1 1 1 1 1 1 1 1 1 0 1 1 1 2 2 2 2 2 2 2 2 2 4 5 4 3 3 3 3 3 3 3 3 4 3 4 3 5 6 5
2 1 1 1 1 1 1 0 0 0 0 0 1 1 1 2 3 3 3 2 2 2 2 3 3 3 5 6 6 6 5 3 3 3 4 4 5 4 4 4 4 5 4
2 1 1 1 0 0 0 1 0 0 0 0 1 1 1 2 3 3 4 2 1 2 2 2 3 4 5 4 5 6 6 7 5 4 5 5 5 5 4 5 4 5 5
2 1 1 1 1 0 1 0 0 0 0 1 1 1 1 2 4 4 4 2 1 1 2 2 3 4 4 4 3 4 4 5 5 4 4 5 5 5 5 5 5 5 4
2 2 2 2 1 1 1 1 0 0 1 1 1 1 1 2 4 4 4 1 1 2 2 3 3 3 6 7 4 4 4 5 7 7 7 7 8 9 6 3 3 3 4
2 2 2 2 2 2 2 1 1 1 1 1 1 1 2 2 4 5 5 1 2 2 3 3 5 5 6 6 3 3 4 5 4 5 5 6 6 6 6 3 3 4 4
2 1 1 2 2 2 2 1 1 1 1 1 2 2 2 3 4 5 5 2 2 2 3 3 3 6 7 7 6 3 5 5 3 3 3 3 3 3 3 3 3 3 4
1 1 1 1 2 1 2 1 1 1 1 1 1 2 2 3 3 4 5 4 4 3 3 3 4 7 7 7 6 6 7 5 3 3 3 3 3 3 3 4 4 4 5
1 1 1 1 1 1 2 2 1 2 2 2 1 2 3 2 3 5 5 5 5 3 3 5 6 7 7 5 6 6 5 3 2 3 3 4 4 4 4 3 4 4 5
2 2 1 1 1 1 2 2 2 2 2 2 2 2 3 3 2 2 2 3 4 4 3 5 6 6 5 5 5 4 3 2 3 3 4 4 4 3 3 3 3 3 4
2 2 2 2 2 2 2 2 3 3 4 3 3 3 3 4 5 6 4 3 3 3 3 2 2 2 2 2 3 3 2 3 3 3 3 4 4 4 4 3 3 3 3
2 2 2 2 2 2 2 2 3 4 5 6 5 5 5 6 7 7 7 7 7 6 3 2 2 2 3 3 3 3 3 3 3 3 3 4 4 4 4 4 3 3 4
3 3 2 2 2 2 2 2 2 3 4 4 5 5 5 6 6 6 6 5 5 4 2 2 3 3 3 3 3 3 4 4 3 3 4 4 4 4 4 4 4 4 4
3 3 3 3 3 2 2 2 2 2 2 3 4 5 6 6 6 5 5 4 3 2 2 2 3 3 3 3 3 4 4 4 3 3 4 4 4 4 4 4 4 4 4
2 2 2 2 2 2 2 2 2 2 2 3 3 4 5 5 5 5 4 2 2 3 3 3 3 3 3 3 4 4 4 4 4 4 4 4 4 4 4 5 4 6 5
2 3 3 2 2 2 2 2 2 3 2 2 3 3 3 3 2 3 2 2 2 3 3 3 4 4 4 4 4 4 4 4 4 4 4 4 4 4 5 5 4 4 4
2 2 3 2 2 2 2 3 3 2 2 3 3 4 5 3 3 3 3 3 3 4 4 4 4 4 4 4 4 4 5 5 4 4 5 4 4 4 4 4 4 4 4
2 2 2 2 2 2 2 2 2 3 3 3 3 4 6 3 3 3 4 4 4 4 4 4 4 4 4 4 4 4 5 5 5 5 5 5 5 5 4 4 4 4 4
1 2 2 2 2 3 3 2 2 2 3 3 3 3 3 3 3 4 4 4 4 5 5 5 5 5 5 5 6 5 5 6 6 6 5 5 5 5 4 4 5 4 4
1 2 2 2 2 2 2 2 2 2 3 3 3 3 3 3 4 4 4 4 4 5 5 5 5 6 7 7 7 7 8 8 8 7 7 6 5 5 5 4 5 5 5
1 2 2 2 2 2 2 2 2 2 3 3 3 3 3 4 4 4 4 4 5 5 6 6 6 6 8 8 8 9 10 11 10 8 7 6 5 5 5 5 4 4 4
2 2 2 2 2 2 2 2 2 3 3 3 3 3 4 4 4 4 4 4 4 5 5 6 7 8 9 9 9 10 11 10 10 9 7 5 5 5 5 4 5 4 4
Wind_Direction
152 158 149 160 158 151 170 188 193 205 224 251 279 292 301 313 326 328 309 314 307 306 308 301 301 307 309 309 304 299 289 277 274 286 290 304 309 313 323 324 323 323 320
163 157 156 152 149 152 171 191 176 195 222 242 258 274 295 317 323 302 293 291 273 277 288 296 297 305 299 295 294 294 291 282 272 286 296 304 304 311 318 320 322 322 319
147 148 148 155 161 175 190 182 147 148 164 257 330 270 284 287 294 287 267 266 265 264 266 267 277 287 295 298 293 286 287 291 278 276 290 297 299 312 321 322 323 319 322
140 145 164 181 190 199 186 168 162 157 167 199 236 267 279 280 279 279 278 265 269 282 281 275 277 272 275 280 284 279 282 286 280 274 281 293 295 303 309 318 322 326 325
146 152 195 191 162 157 156 163 147 148 189 200 234 283 294 283 263 267 271 268 258 281 292 295 299 303 298 292 288 283 287 286 278 277 282 292 296 309 306 307 307 315 316
162 180 187 135 121 151 169 158 100 76 3 52 290 280 286 289 287 297 298 275 268 272 295 305 312 311 312 312 311 310 310 298 283 275 280 282 288 292 295 301 305 314 309
168 174 162 141 126 140 145 108 94 46 50 320 301 286 284 292 300 302 304 308 276 269 275 294 307 315 321 319 314 317 321 320 302 281 276 278 281 281 283 289 292 292 291
176 183 176 158 157 142 127 130 63 288 273 272 291 287 289 298 311 310 313 339 312 280 275 280 287 295 304 310 298 303 302 307 301 290 269 277 282 278 265 268 276 287 291
193 201 201 188 190 190 203 236 248 233 289 272 280 275 276 294 309 308 313 311 296 288 287 289 288 285 300 307 305 304 308 309 310 299 294 296 299 300 298 295 295 295 302
217 218 210 196 197 211 218 232 249 262 269 287 304 294 276 281 299 306 306 277 278 290 291 288 293 297 300 304 299 295 301 304 313 320 311 309 309 306 309 289 269 275 290
218 206 205 203 204 211 216 224 206 235 276 296 299 300 289 284 299 303 301 293 268 277 284 288 291 302 302 303 304 295 294 303 306 306 307 312 316 315 312 304 284 261 272
179 192 219 224 224 211 191 216 213 198 214 272 292 310 299 288 295 301 307 305 298 277 280 284 288 298 302 303 305 302 305 317 314 312 314 312 310 308 305 306 295 284 271
173 210 233 249 248 228 209 215 220 206 212 247 260 283 295 293 291 297 299 301 298 292 282 285 291 297 301 301 303 306 311 311 302 300 300 300 299 297 303 312 316 311 305
201 227 234 232 253 246 234 222 218 220 224 236 245 263 282 289 281 283 284 289 290 290 293 294 299 301 308 309 311 314 310 295 291 289 295 299 304 307 309 312 313 319 317
216 230 237 238 237 245 246 236 233 230 226 228 234 243 260 273 278 281 279 275 263 262 282 291 301 310 315 317 314 307 302 301 300 300 298 301 305 309 308 308 305 308 304
222 232 229 235 238 238 245 279 270 259 262 259 255 257 267 273 284 288 284 282 282 279 282 280 283 285 283 290 297 304 304 299 297 297 295 295 298 300 304 306 303 301 297
221 232 232 237 235 235 235 241 277 296 284 277 278 281 282 287 293 296 295 293 290 290 284 275 270 275 279 282 285 290 294 298 296 292 290 289 291 294 295 296 299 297 292
231 240 240 238 238 235 236 239 244 260 286 298 299 298 298 296 299 299 297 303 306 307 287 279 280 280 280 281 283 287 293 297 296 293 290 287 284 284 287 289 289 287 289
237 238 238 238 239 234 234 239 247 252 261 283 303 308 304 301 301 301 304 301 291 292 288 283 279 279 280 279 280 282 286 288 288 287 286 284 283 282 281 283 283 291 292
241 248 247 236 230 232 233 237 244 248 255 266 277 287 305 309 301 301 301 285 280 281 281 279 277 275 276 275 277 280 284 285 285 282 283 284 284 280 278 277 280 282 281
243 250 255 252 233 228 231 240 245 245 250 263 271 280 286 281 279 284 286 282 278 276 277 277 276 275 272 271 271 272 275 278 278 279 281 281 282 280 275 273 274 274 278
230 235 234 233 235 235 238 239 239 243 252 265 276 282 290 290 282 282 282 281 277 274 274 273 273 270 265 261 262 266 270 275 278 278 280 281 280 278 277 274 274 276 278
226 236 247 248 244 250 260 249 244 248 258 266 274 279 281 278 276 277 279 281 282 280 278 272 271 272 271 268 260 257 263 270 274 277 278 279 278 277 275 271 269 275 275
227 235 244 255 254 247 250 255 254 258 264 267 270 274 275 276 278 279 281 282 282 280 278 274 271 272 274 275 272 267 265 269 273 269 266 268 272 274 272 268 267 267 267
234 238 244 250 249 251 252 256 258 262 267 272 273 276 279 280 281 283 281 283 283 281 280 279 275 276 278 277 276 276 278 281 282 278 267 264 267 266 266 265 264 266 264
244 249 253 251 249 253 256 261 264 266 270 275 278 278 279 281 282 283 284 285 287 286 285 283 279 280 282 282 281 283 285 285 284 284 277 266 266 265 263 262 260 261 261
Height
1491 1492 1493 1494 1495 1496 1496 1497 1497 1497 1497 1497 1497 1497 1497 1496 1496 1496 1496 1496 1495 1495 1495 1495 1494 1494 1493 1492 1491 1490 1489 1488 1485 1482 1482 1481 1480 1478 1477 1475 1473 1471 1470
1488 1489 1490 1491 1491 1492 1493 1493 1493 1493 1493 1493 1493 1493 1493 1493 1492 1492 1492 1492 1492 1492 1491 1490 1490 1489 1488 1487 1486 1485 1484 1483 1481 1478 1477 1476 1475 1474 1472 1470 1468 1467 1466
1485 1486 1487 1488 1488 1489 1489 1489 1490 1490 1490 1489 1489 1489 1489 1489 1489 1489 1489 1488 1488 1488 1487 1486 1486 1485 1484 1483 1482 1480 1479 1478 1476 1474 1472 1471 1470 1469 1467 1466 1464 1463 1462
1482 1483 1484 1484 1485 1485 1486 1486 1486 1486 1486 1486 1485 1485 1485 1485 1485 1485 1485 1484 1484 1484 1483 1483 1482 1481 1480 1479 1478 1476 1474 1473 1471 1469 1468 1466 1466 1465 1463 1462 1460 1459 1457
1479 1480 1481 1481 1482 1482 1482 1482 1483 1483 1483 1482 1482 1482 1482 1482 1481 1481 1481 1481 1480 1480 1479 1478 1478 1477 1476 1475 1474 1472 1470 1468 1466 1464 1463 1463 1462 1461 1460 1458 1457 1455 1453
1476 1477 1478 1478 1478 1479 1479 1479 1479 1479 1479 1479 1479 1478 1478 1478 1478 1478 1478 1477 1476 1476 1475 1474 1473 1473 1472 1471 1470 1469 1467 1465 1462 1461 1460 1459 1458 1458 1457 1455 1454 1451 1449
1473 1474 1474 1475 1475 1476 1476 1476 1476 1476 1476 1475 1475 1475 1474 1474 1474 1474 1474 1473 1473 1472 1471 1470 1469 1469 1468 1467 1466 1464 1463 1461 1460 1459 1457 1456 1455 1455 1453 1452 1450 1449 1447
1470 1471 1472 1472 1472 1472 1473 1473 1473 1473 1472 1472 1471 1471 1471 1471 1471 1471 1470 1470 1469 1469 1468 1467 1466 1465 1464 1463 1462 1460 1459 1457 1456 1455 1454 1453 1453 1452 1450 1449 1447 1445 1443
1467 1468 1469 1469 1469 1469 1470 1470 1470 1469 1469 1469 1468 1468 1468 1468 1468 1467 1467 1466 1465 1465 1464 1463 1463 1462 1461 1460 1458 1457 1455 1454 1453 1452 1451 1450 1449 1448 1447 1445 1443 1442 1439
1465 1465 1466 1466 1466 1467 1467 1467 1467 1466 1466 1466 1465 1465 1465 1465 1465 1464 1464 1463 1461 1461 1461 1460 1459 1458 1458 1457 1455 1453 1452 1451 1449 1448 1447 1446 1445 1444 1443 1442 1440 1438 1436
1462 1462 1463 1463 1464 1464 1464 1464 1464 1463 1463 1463 1462 1462 1462 1462 1461 1461 1461 1460 1459 1458 1457 1456 1456 1455 1454 1453 1452 1451 1449 1448 1446 1445 1443 1442 1441 1440 1438 1437 1436 1435 1433
1459 1459 1460 1461 1461 1461 1461 1461 1461 1461 1460 1460 1460 1459 1459 1459 1459 1458 1458 1457 1456 1455 1454 1453 1453 1452 1451 1450 1449 1448 1447 1445 1444 1442 1440 1438 1437 1436 1435 1434 1433 1432 1430
1456 1456 1457 1457 1458 1458 1458 1458 1457 1457 1457 1457 1457 1456 1456 1456 1456 1455 1455 1454 1453 1452 1451 1451 1449 1448 1448 1447 1446 1444 1443 1442 1440 1439 1437 1435 1434 1433 1431 1430 1429 1427 1426
1452 1453 1454 1454 1454 1455 1455 1454 1454 1454 1454 1454 1453 1453 1453 1453 1453 1452 1451 1451 1450 1449 1448 1447 1446 1445 1444 1443 1442 1441 1440 1439 1437 1435 1434 1432 1431 1429 1428 1426 1425 1423 1422
1449 1450 1450 1451 1451 1451 1451 1451 1451 1451 1451 1451 1451 1451 1450 1449 1449 1449 1448 1447 1446 1446 1445 1444 1443 1442 1440 1440 1439 1438 1437 1436 1434 1432 1431 1429 1428 1427 1425 1424 1422 1421 1419
1446 1447 1447 1447 1447 1447 1447 1448 1448 1448 1448 1448 1448 1448 1447 1447 1446 1446 1445 1444 1443 1443 1442 1440 1439 1438 1437 1436 1436 1434 1433 1432 1431 1430 1428 1427 1425 1424 1422 1421 1420 1419 1417
1443 1443 1444 1444 1444 1444 1444 1444 1444 1445 1445 1445 1445 1444 1444 1444 1443 1442 1442 1441 1440 1439 1438 1437 1436 1435 1434 1433 1433 1431 1430 1429 1428 1427 1425 1424 1423 1421 1420 1418 1417 1416 1414
1440 1441 1441 1441 1441 1441 1442 1442 1442 1441 1441 1441 1442 1441 1441 1440 1440 1439 1439 1438 1437 1436 1435 1434 1433 1432 1431 1430 1429 1428 1427 1426 1425 1423 1422 1421 1420 1419 1417 1416 1414 1413 1412
1437 1437 1438 1438 1438 1438 1439 1439 1439 1439 1438 1438 1438 1438 1438 1437 1437 1436 1435 1434 1433 1432 1431 1431 1430 1429 1428 1427 1426 1425 1424 1423 1422 1420 1419 1418 1417 1416 1414 1413 1412 1411 1409
1434 1435 1435 1435 1435 1435 1435 1435 1435 1435 1435 1435 1435 1434 1434 1434 1433 1432 1432 1431 1430 1429 1428 1427 1426 1425 1425 1424 1423 1421 1420 1419 1418 1417 1416 1415 1414 1412 1411 1410 1409 1407 1406
1432 1432 1432 1432 1432 1432 1432 1432 1432 1432 1432 1432 1432 1432 1431 1431 1430 1429 1428 1427 1426 1425 1424 1424 1423 1422 1421 1420 1419 1418 1417 1416 1415 1414 1413 1412 1410 1409 1408 1407 1406 1404 1403
1429 1429 1429 1429 1429 1429 1429 1429 1429 1429 1429 1429 1429 1429 1428 1427 1426 1426 1425 1424 1423 1422 1421 1420 1419 1418 1417 1416 1415 1414 1413 1412 1411 1411 1409 1408 1407 1406 1405 1403 1402 1401 1400
1427 1427 1427 1427 1427 1427 1427 1427 1427 1426 1426 1426 1426 1425 1425 1424 1423 1422 1421 1420 1419 1418 1417 1416 1415 1414 1413 1412 1412 1411 1410 1409 1408 1407 1406 1405 1404 1402 1401 1400 1399 1398 1397
1425 1424 1424 1424 1424 1424 1424 1424 1424 1424 1423 1423 1423 1422 1421 1421 1420 1419 1418 1417 1415 1414 1413 1412 1411 1410 1409 1409 1408 1407 1406 1405 1405 1403 1402 1401 1400 1399 1398 1397 1396 1395 1394
1422 1422 1422 1422 1422 1421 1421 1421 1421 1421 1420 1420 1420 1419 1418 1417 1416 1415 1414 1413 1411 1410 1409 1408 1407 1406 1405 1404 1404 1403 1402 1401 1400 1400 1399 1398 1396 1395 1394 1393 1392 1392 1391
1420 1420 1419 1419 1419 1419 1419 1418 1418 1418 1418 1417 1416 1416 1415 1414 1413 1411 1410 1409 1408 1407 1405 1404 1403 1402 1401 1400 1400 1399 1398 1397 1396 1396 1395 1394 1393 1392 1391 1390 1389 1388 1388